"Pseudo-MPEC" for JgCz1Im

Created 2024 Jul 20 5:22:04 UT using Find_Orb

Click here for an explanation of pseudo-MPECs

 
 Astrometry: 
     JgCz1Im*!C2024 06 30.29951 23 13 39.48 -19 58 17.8    ~71E7 22.0 rXNEOCPW84
     JgCz1Im !C2024 06 30.30452 23 13 39.80 -19 58 12.8    ~71E7 22.1 rXNEOCPW84
     JgCz1Im !C2024 06 30.30954 23 13 40.10 -19 58 08.1    ~71E7 22.1 rXNEOCPW84
     JgCz1Im !C2024 06 30.31453 23 13 40.44 -19 58 03.1    ~71E7 22.3 rXNEOCPW84
     JgCz1Im !C2024 06 30.31953 23 13 40.74 -19 57 58.4    ~71E7 22.1 rXNEOCPW84
     JgCz1Im !C2024 06 30.32454 23 13 41.05 -19 57 53.7    ~71E7 22.3 rXNEOCPW84
     JgCz1Im !C2024 06 30.32954 23 13 41.34 -19 57 49.0    ~71E7 22.0 rXNEOCPW84
     JgCz1Im !C2024 06 30.34210 23 13 42.14 -19 57 36.9    ~71E7 22.4 rXNEOCPW84
     JgCz1Im !C2024 06 30.34713 23 13 42.45 -19 57 32.0    ~71E7 22.6 rXNEOCPW84
     JgCz1Im !C2024 06 30.35467 23 13 42.91 -19 57 24.8    ~71E7 22.2 rXNEOCPW84
     JgCz1Im  C2024 06 30.56660223 13 57.140-19 54 09.64   ~72Kq 22.16GVNEOCPF52
     JgCz1Im  C2024 06 30.59052723 13 58.609-19 53 46.70   ~72Kq 21.72GVNEOCPF52
     JgCz1Im  C2024 06 30.60250823 13 59.330-19 53 34.95   ~72Kq 22.32GVNEOCPF52

Station data:
(F52) Pan-STARRS 2, Haleakala  (N20.707382 W156.255910)  US/Hawaii.
   Observers J. Bulger, T. Dukes, T. Lowe, A. Schultz, M. Willman. Measurers
   K. Chambers, S. Chastel, T. de Boer, L. Denneau, J. Fairlamb, H.
   Flewelling, M. Huber, C.-C. Lin, E. Magnier, Y. Ramanjooloo, R. Wainscoat,
   R. Weryk. 1.8-m Ritchey-Chrétien + CCD.
(W84) Cerro Tololo-DECam  (S30.169594 W70.806420)  Chile.  Observer F. Valdes.
    Measurer S. Deen. 4.0-m reflector + CCD.

Orbital elements:  JgCz1Im
   Perihelion 2024 Sep 27.42627 +/- 76.7 TT = 10:13:49 (JD 2460580.92627)
Epoch 2024 Jun 30.0 TT = JDT 2460491.5   Earth MOID: 0.0711   Me: 0.0844
M 304.01569799 +/- 48               Ma: 0.0698                   AutoNEOCP
n   0.62603865 +/- 0.297            Peri.  128.45112 +/- 100
a   1.35332451 +/- 0.429            Node   313.69418 +/- 11
e   0.7221136 +/- 0.236             Incl.   32.18694 +/- 13
P   1.574/575.034d         H 20.75  G  0.15   U 11.9  SR
q 0.37607047 +/- 0.466    Q 2.33057855 +/- 4.9            (J2000 ecliptic)
From 13 observations 2024 June 30 (7.3 hr); mean residual 0".11
Residuals in arcseconds: 
240630 W84  .11-  .25-    240630 W84  .06+  .01+    240630 F52  .07+  .06+    
240630 W84  .01-  .01-    240630 W84  .23-  .07-    240630 F52  .06+  .10-    
240630 W84  .19-  .09-    240630 W84  .08+  .02+    240630 F52  .12-  .04+    
240630 W84  .22+  .16+    240630 W84  .07+  .10+    
240630 W84  .07+  .09+    240630 W84  .02-  .07+    

Ephemerides (geocentric):
Date (UTC) HH   RA             Dec           delta  r     elong  mag " sig PA
---- --------  ------------   ------------  ------ ------ -----  --- --------
2024 07 20 05  23 36 28.969   -10 32 27.13  .35299 1.2600 126.9 20.6 233' 149
2024 07 20 06  23 36 32.342   -10 30 15.09  .35229 1.2595 126.9 20.6 235' 149
2024 07 20 07  23 36 35.722   -10 28 02.56  .35160 1.2590 126.9 20.6 237' 149
2024 07 20 08  23 36 39.107   -10 25 49.53  .35090 1.2585 126.9 20.6 239' 149
2024 07 20 09  23 36 42.497   -10 23 36.00  .35021 1.2581 126.9 20.6 242' 149
2024 07 20 10  23 36 45.893   -10 21 21.98  .34951 1.2576 126.9 20.6 244' 149
2024 07 20 11  23 36 49.295   -10 19 07.45  .34882 1.2571 127.0 20.5 246' 149
2024 07 20 12  23 36 52.702   -10 16 52.42  .34812 1.2566 127.0 20.5 249' 149
2024 07 20 13  23 36 56.116   -10 14 36.88  .34743 1.2562 127.0 20.5 251' 149
2024 07 20 14  23 36 59.534   -10 12 20.83  .34673 1.2557 127.0 20.5 253' 149
2024 07 20 15  23 37 02.959   -10 10 04.26  .34604 1.2552 127.0 20.5 256' 149
2024 07 20 16  23 37 06.390   -10 07 47.18  .34535 1.2547 127.0 20.5 258' 149
2024 07 20 17  23 37 09.826   -10 05 29.58  .34465 1.2543 127.0 20.5 261' 149
2024 07 20 18  23 37 13.269   -10 03 11.45  .34396 1.2538 127.1 20.5 263' 149
2024 07 20 19  23 37 16.717   -10 00 52.80  .34327 1.2533 127.1 20.5 266' 149
2024 07 20 20  23 37 20.172   -09 58 33.63  .34257 1.2528 127.1 20.5 268' 149
2024 07 20 21  23 37 23.633   -09 56 13.92  .34188 1.2523 127.1 20.5 271' 149
2024 07 20 22  23 37 27.099   -09 53 53.67  .34119 1.2519 127.1 20.5 273' 149
2024 07 20 23  23 37 30.572   -09 51 32.89  .34050 1.2514 127.1 20.5 276' 149
2024 07 21 00  23 37 34.052   -09 49 11.56  .33981 1.2509 127.1 20.5 279' 149
2024 07 21 01  23 37 37.537   -09 46 49.70  .33912 1.2504 127.2 20.5 281' 149
2024 07 21 02  23 37 41.029   -09 44 27.28  .33842 1.2500 127.2 20.5 284' 149
2024 07 21 03  23 37 44.527   -09 42 04.31  .33773 1.2495 127.2 20.5 287' 149
2024 07 21 04  23 37 48.031   -09 39 40.80  .33704 1.2490 127.2 20.5 290' 149
2024 07 21 05  23 37 51.542   -09 37 16.72  .33635 1.2485 127.2 20.5 293' 149
2024 07 21 06  23 37 55.060   -09 34 52.08  .33566 1.2480 127.2 20.5 296' 149
2024 07 21 07  23 37 58.584   -09 32 26.88  .33497 1.2476 127.2 20.4 299' 149
2024 07 21 08  23 38 02.114   -09 30 01.12  .33428 1.2471 127.2 20.4 302' 149
2024 07 21 09  23 38 05.652   -09 27 34.78  .33359 1.2466 127.3 20.4 305' 149
2024 07 21 10  23 38 09.195   -09 25 07.87  .33290 1.2461 127.3 20.4 308' 150
2024 07 21 11  23 38 12.746   -09 22 40.39  .33221 1.2456 127.3 20.4 311' 150
2024 07 21 12  23 38 16.304   -09 20 12.32  .33153 1.2452 127.3 20.4 314' 150
2024 07 21 13  23 38 19.868   -09 17 43.67  .33084 1.2447 127.3 20.4 317' 150
2024 07 21 14  23 38 23.439   -09 15 14.44  .33015 1.2442 127.3 20.4 321' 150
2024 07 21 15  23 38 27.017   -09 12 44.61  .32946 1.2437 127.3 20.4 324' 150
2024 07 21 16  23 38 30.602   -09 10 14.19  .32877 1.2432 127.3 20.4 327' 150
2024 07 21 17  23 38 34.195   -09 07 43.17  .32808 1.2427 127.4 20.4 331' 150
2024 07 21 18  23 38 37.794   -09 05 11.55  .32740 1.2423 127.4 20.4 334' 150
2024 07 21 19  23 38 41.400   -09 02 39.33  .32671 1.2418 127.4 20.4 337' 150
2024 07 21 20  23 38 45.014   -09 00 06.50  .32602 1.2413 127.4 20.4 341' 150
2024 07 21 21  23 38 48.635   -08 57 33.06  .32534 1.2408 127.4 20.4 345' 150
2024 07 21 22  23 38 52.263   -08 54 59.00  .32465 1.2403 127.4 20.4 348' 150
2024 07 21 23  23 38 55.899   -08 52 24.32  .32396 1.2399 127.4 20.4 352' 150
2024 07 22 00  23 38 59.542   -08 49 49.02  .32328 1.2394 127.4 20.4 356' 150
2024 07 22 01  23 39 03.192   -08 47 13.10  .32259 1.2389 127.5 20.4 359' 150
2024 07 22 02  23 39 06.850   -08 44 36.54  .32191 1.2384 127.5 20.4 363' 150
2024 07 22 03  23 39 10.516   -08 41 59.35  .32122 1.2379 127.5 20.3 367' 150
2024 07 22 04  23 39 14.189   -08 39 21.53  .32054 1.2374 127.5 20.3 371' 150